Precipitable_Water
0.62 0.66 0.70 0.74 0.80 0.83 0.85 0.87 0.89 0.93 0.95 0.95 0.95 0.97 0.97 0.99 0.99 1.01 1.03 1.03 1.01 1.01 0.99 0.99 0.99 0.99 1.01 1.03 1.05 1.05 1.05 1.03 0.99 0.97 0.97 0.95 0.95 0.97 0.99 1.01 1.03 1.05 1.07 1.09 1.13 1.15 1.19 1.25 1.25 1.25 1.23 1.21 1.17 1.11 1.05 1.03 1.03 1.01 0.99 0.97 0.91 0.87 0.83 0.81 0.80 0.78 0.74 0.72 0.72
0.56 0.60 0.66 0.72 0.76 0.78 0.80 0.81 0.83 0.87 0.91 0.91 0.93 0.93 0.93 0.95 0.95 0.97 0.97 0.99 0.99 0.99 0.99 0.99 0.99 0.97 0.97 0.97 0.99 0.99 0.97 0.95 0.95 0.95 0.95 0.93 0.93 0.95 0.95 0.97 0.99 1.03 1.05 1.09 1.13 1.15 1.19 1.21 1.23 1.23 1.21 1.17 1.15 1.11 1.07 1.05 1.03 1.01 0.99 0.97 0.93 0.87 0.83 0.81 0.78 0.76 0.74 0.72 0.72
0.54 0.56 0.62 0.68 0.70 0.72 0.74 0.76 0.78 0.80 0.83 0.85 0.87 0.89 0.89 0.91 0.91 0.93 0.95 0.95 0.97 0.97 0.99 0.97 0.97 0.97 0.97 0.95 0.95 0.95 0.93 0.93 0.95 0.95 0.95 0.93 0.93 0.93 0.95 0.95 0.97 0.99 1.03 1.07 1.11 1.15 1.17 1.19 1.21 1.19 1.19 1.15 1.13 1.09 1.07 1.07 1.05 1.03 0.99 0.95 0.91 0.87 0.81 0.80 0.78 0.76 0.74 0.74 0.74
0.54 0.56 0.60 0.64 0.66 0.66 0.68 0.68 0.70 0.74 0.78 0.80 0.83 0.85 0.85 0.87 0.89 0.91 0.93 0.95 0.97 0.97 0.97 0.95 0.95 0.95 0.95 0.95 0.93 0.93 0.93 0.93 0.95 0.95 0.93 0.93 0.93 0.93 0.93 0.93 0.93 0.95 0.99 1.05 1.09 1.13 1.15 1.15 1.17 1.17 1.17 1.15 1.13 1.11 1.09 1.09 1.05 1.01 0.97 0.93 0.91 0.87 0.83 0.78 0.76 0.76 0.74 0.74 0.76
0.54 0.56 0.58 0.62 0.62 0.64 0.64 0.66 0.66 0.68 0.74 0.76 0.80 0.81 0.83 0.85 0.87 0.91 0.93 0.95 0.95 0.95 0.95 0.93 0.93 0.93 0.93 0.91 0.91 0.91 0.93 0.93 0.93 0.93 0.93 0.93 0.93 0.93 0.93 0.93 0.93 0.95 0.99 1.05 1.09 1.11 1.13 1.13 1.13 1.15 1.15 1.15 1.13 1.13 1.11 1.09 1.03 0.99 0.95 0.91 0.89 0.85 0.81 0.80 0.78 0.76 0.76 0.76 0.78
0.54 0.56 0.60 0.62 0.62 0.64 0.64 0.66 0.66 0.68 0.70 0.74 0.78 0.80 0.81 0.83 0.85 0.87 0.89 0.91 0.91 0.93 0.93 0.93 0.93 0.91 0.89 0.89 0.89 0.89 0.91 0.91 0.93 0.93 0.91 0.91 0.93 0.93 0.95 0.95 0.95 0.97 0.99 1.01 1.07 1.09 1.07 1.09 1.11 1.11 1.13 1.13 1.11 1.11 1.09 1.07 1.05 0.99 0.93 0.89 0.85 0.83 0.81 0.81 0.80 0.78 0.78 0.78 0.81
0.56 0.58 0.60 0.62 0.64 0.64 0.66 0.66 0.66 0.68 0.70 0.74 0.76 0.78 0.80 0.81 0.81 0.83 0.85 0.87 0.89 0.91 0.93 0.93 0.89 0.89 0.89 0.87 0.87 0.89 0.89 0.91 0.91 0.91 0.93 0.93 0.93 0.93 0.97 0.97 0.99 1.01 1.01 1.03 1.07 1.05 1.05 1.07 1.07 1.09 1.09 1.09 1.09 1.07 1.05 1.03 1.01 0.97 0.91 0.87 0.85 0.83 0.81 0.81 0.81 0.81 0.81 0.81 0.83
0.60 0.60 0.60 0.64 0.64 0.66 0.66 0.66 0.66 0.68 0.72 0.74 0.74 0.76 0.78 0.80 0.81 0.83 0.85 0.87 0.89 0.89 0.87 0.87 0.87 0.87 0.87 0.87 0.87 0.87 0.89 0.91 0.91 0.91 0.93 0.93 0.93 0.95 0.97 0.99 1.01 1.01 1.03 1.05 1.05 1.05 1.05 1.05 1.07 1.07 1.07 1.07 1.05 1.03 1.01 0.99 0.97 0.93 0.89 0.85 0.83 0.83 0.83 0.83 0.83 0.83 0.83 0.83 0.81
0.64 0.66 0.66 0.66 0.68 0.70 0.70 0.70 0.70 0.70 0.72 0.72 0.74 0.76 0.78 0.80 0.83 0.85 0.85 0.87 0.87 0.87 0.85 0.85 0.85 0.87 0.85 0.85 0.87 0.87 0.89 0.91 0.91 0.93 0.93 0.93 0.95 0.97 0.99 1.01 1.01 1.03 1.05 1.05 1.07 1.05 1.05 1.05 1.05 1.05 1.05 1.05 1.01 0.99 0.97 0.95 0.93 0.91 0.87 0.85 0.85 0.85 0.85 0.85 0.85 0.85 0.85 0.83 0.81
0.66 0.66 0.68 0.70 0.72 0.74 0.76 0.74 0.76 0.76 0.76 0.76 0.76 0.78 0.80 0.81 0.85 0.87 0.87 0.87 0.85 0.85 0.83 0.83 0.83 0.85 0.83 0.83 0.85 0.87 0.89 0.91 0.93 0.95 0.95 0.95 0.95 0.97 0.97 1.01 1.03 1.03 1.05 1.05 1.05 1.05 1.05 1.05 1.03 1.03 1.01 1.01 0.99 0.97 0.95 0.93 0.89 0.87 0.85 0.85 0.85 0.85 0.85 0.85 0.85 0.83 0.83 0.81 0.80
0.66 0.68 0.70 0.70 0.72 0.74 0.76 0.78 0.80 0.81 0.83 0.83 0.83 0.83 0.83 0.83 0.85 0.87 0.87 0.87 0.85 0.83 0.81 0.81 0.83 0.83 0.83 0.83 0.85 0.87 0.89 0.91 0.95 0.95 0.95 0.95 0.95 0.95 0.97 1.01 1.01 1.03 1.03 1.03 1.03 1.03 1.03 1.03 1.03 1.01 0.99 0.99 0.97 0.97 0.95 0.91 0.87 0.85 0.85 0.85 0.85 0.85 0.83 0.83 0.83 0.81 0.81 0.80 0.78
0.70 0.70 0.70 0.72 0.72 0.74 0.76 0.76 0.78 0.81 0.83 0.83 0.83 0.85 0.85 0.85 0.85 0.85 0.87 0.85 0.83 0.81 0.81 0.81 0.83 0.85 0.85 0.87 0.89 0.91 0.93 0.93 0.95 0.95 0.95 0.93 0.95 0.97 0.99 0.99 1.01 1.01 1.01 0.99 1.01 1.03 1.03 1.01 1.01 0.99 0.97 0.97 0.97 0.97 0.93 0.89 0.85 0.85 0.85 0.85 0.85 0.85 0.83 0.81 0.81 0.80 0.80 0.78 0.76
0.70 0.72 0.72 0.74 0.74 0.74 0.76 0.76 0.78 0.80 0.81 0.83 0.83 0.85 0.85 0.85 0.85 0.85 0.85 0.83 0.83 0.83 0.83 0.83 0.85 0.87 0.87 0.89 0.91 0.93 0.93 0.93 0.93 0.95 0.95 0.95 0.99 0.99 1.01 1.01 0.99 0.99 0.99 0.99 1.01 1.01 1.01 1.01 1.01 0.99 0.97 0.97 0.95 0.93 0.91 0.87 0.85 0.85 0.85 0.85 0.83 0.83 0.81 0.80 0.80 0.78 0.76 0.76 0.76
0.72 0.72 0.74 0.74 0.76 0.76 0.78 0.78 0.78 0.78 0.80 0.81 0.83 0.85 0.85 0.85 0.85 0.85 0.85 0.83 0.83 0.83 0.85 0.85 0.85 0.87 0.91 0.91 0.93 0.93 0.93 0.93 0.93 0.95 0.97 0.99 1.01 1.01 1.01 0.99 0.99 0.99 0.99 1.01 1.01 1.01 1.01 1.01 0.99 0.99 0.97 0.95 0.93 0.91 0.89 0.87 0.87 0.85 0.85 0.83 0.81 0.81 0.80 0.80 0.78 0.78 0.78 0.78 0.78
0.74 0.74 0.76 0.76 0.76 0.78 0.78 0.78 0.78 0.78 0.78 0.78 0.81 0.83 0.85 0.85 0.85 0.85 0.85 0.85 0.85 0.85 0.87 0.87 0.87 0.89 0.91 0.91 0.93 0.93 0.93 0.93 0.93 0.95 0.99 1.01 1.01 1.01 0.99 0.99 0.99 0.99 1.01 1.01 1.01 1.01 1.01 0.99 0.99 0.97 0.95 0.91 0.89 0.89 0.87 0.87 0.87 0.85 0.83 0.81 0.81 0.80 0.80 0.78 0.78 0.78 0.78 0.78 0.80
0.76 0.76 0.76 0.78 0.78 0.78 0.78 0.78 0.78 0.78 0.76 0.78 0.80 0.81 0.83 0.85 0.85 0.85 0.85 0.85 0.87 0.87 0.87 0.87 0.87 0.89 0.91 0.91 0.91 0.91 0.91 0.91 0.91 0.95 0.99 0.99 0.99 0.99 0.99 0.97 0.97 0.99 1.01 1.01 1.01 1.01 1.01 0.99 0.97 0.97 0.93 0.91 0.89 0.89 0.87 0.87 0.85 0.85 0.83 0.81 0.81 0.80 0.80 0.80 0.80 0.80 0.80 0.80 0.83
0.76 0.76 0.76 0.76 0.76 0.76 0.76 0.76 0.78 0.76 0.76 0.76 0.78 0.80 0.81 0.83 0.85 0.85 0.85 0.87 0.87 0.87 0.87 0.87 0.87 0.87 0.89 0.89 0.89 0.89 0.89 0.89 0.91 0.93 0.97 0.99 0.99 0.97 0.97 0.95 0.97 0.97 0.99 1.01 1.01 0.99 0.99 0.97 0.97 0.95 0.93 0.91 0.89 0.89 0.87 0.85 0.85 0.83 0.83 0.83 0.81 0.81 0.81 0.80 0.81 0.81 0.81 0.83 0.85
0.76 0.76 0.76 0.74 0.74 0.76 0.76 0.76 0.76 0.76 0.76 0.76 0.76 0.78 0.80 0.83 0.83 0.85 0.87 0.87 0.87 0.87 0.85 0.85 0.87 0.87 0.87 0.87 0.87 0.87 0.87 0.87 0.89 0.93 0.95 0.97 0.97 0.97 0.95 0.95 0.97 0.97 0.99 0.99 0.99 0.99 0.97 0.95 0.95 0.93 0.93 0.91 0.89 0.87 0.87 0.85 0.83 0.83 0.83 0.83 0.83 0.81 0.81 0.81 0.81 0.83 0.85 0.85 0.85
0.74 0.74 0.72 0.72 0.74 0.74 0.76 0.76 0.76 0.76 0.74 0.74 0.76 0.78 0.78 0.81 0.83 0.83 0.85 0.85 0.85 0.85 0.85 0.85 0.85 0.85 0.85 0.85 0.85 0.85 0.85 0.87 0.89 0.91 0.93 0.95 0.95 0.95 0.95 0.95 0.95 0.97 0.97 0.97 0.97 0.97 0.95 0.93 0.93 0.93 0.91 0.91 0.89 0.87 0.85 0.83 0.83 0.83 0.83 0.81 0.81 0.81 0.81 0.81 0.83 0.85 0.85 0.85 0.85
0.70 0.70 0.70 0.70 0.72 0.72 0.74 0.74 0.76 0.76 0.74 0.74 0.74 0.76 0.76 0.78 0.80 0.81 0.83 0.83 0.83 0.85 0.83 0.83 0.83 0.83 0.83 0.83 0.83 0.83 0.85 0.85 0.87 0.89 0.91 0.91 0.93 0.93 0.93 0.95 0.95 0.95 0.95 0.95 0.95 0.95 0.93 0.93 0.91 0.91 0.91 0.89 0.87 0.85 0.83 0.83 0.83 0.81 0.81 0.81 0.81 0.81 0.81 0.81 0.83 0.85 0.85 0.85 0.85
0.68 0.68 0.68 0.70 0.70 0.72 0.72 0.74 0.76 0.76 0.74 0.74 0.74 0.74 0.76 0.76 0.78 0.78 0.80 0.81 0.81 0.83 0.81 0.81 0.81 0.81 0.80 0.80 0.81 0.81 0.83 0.83 0.85 0.85 0.87 0.87 0.89 0.93 0.93 0.95 0.93 0.93 0.93 0.93 0.93 0.93 0.93 0.91 0.91 0.89 0.89 0.85 0.83 0.83 0.81 0.81 0.81 0.81 0.81 0.81 0.81 0.81 0.81 0.83 0.85 0.85 0.85 0.83 0.83
0.68 0.68 0.68 0.70 0.70 0.72 0.72 0.72 0.74 0.74 0.74 0.74 0.74 0.74 0.74 0.74 0.74 0.76 0.76 0.80 0.80 0.80 0.80 0.80 0.80 0.80 0.80 0.80 0.80 0.81 0.81 0.83 0.83 0.83 0.85 0.87 0.89 0.91 0.95 0.95 0.93 0.93 0.91 0.91 0.91 0.91 0.91 0.91 0.89 0.87 0.85 0.83 0.81 0.81 0.81 0.81 0.81 0.80 0.80 0.80 0.81 0.81 0.83 0.85 0.85 0.83 0.83 0.81 0.81
0.68 0.70 0.70 0.70 0.72 0.72 0.72 0.74 0.74 0.74 0.72 0.72 0.72 0.72 0.72 0.72 0.72 0.72 0.74 0.76 0.78 0.78 0.78 0.80 0.80 0.80 0.80 0.80 0.80 0.81 0.81 0.81 0.81 0.81 0.83 0.87 0.89 0.91 0.93 0.93 0.93 0.91 0.91 0.91 0.91 0.91 0.89 0.89 0.87 0.85 0.83 0.81 0.81 0.81 0.81 0.81 0.81 0.81 0.81 0.83 0.85 0.85 0.83 0.83 0.83 0.83 0.81 0.81 0.80
0.70 0.70 0.70 0.70 0.70 0.72 0.72 0.72 0.72 0.72 0.72 0.72 0.72 0.72 0.72 0.72 0.72 0.72 0.72 0.74 0.76 0.76 0.78 0.78 0.78 0.80 0.80 0.80 0.80 0.80 0.80 0.80 0.80 0.81 0.83 0.87 0.89 0.91 0.91 0.91 0.91 0.91 0.91 0.91 0.91 0.89 0.89 0.87 0.85 0.83 0.81 0.81 0.81 0.81 0.81 0.81 0.83 0.83 0.85 0.85 0.85 0.83 0.81 0.81 0.81 0.81 0.80 0.80 0.78
0.68 0.68 0.68 0.68 0.68 0.70 0.70 0.70 0.70 0.70 0.70 0.70 0.70 0.70 0.72 0.72 0.72 0.72 0.72 0.72 0.74 0.76 0.76 0.78 0.78 0.78 0.80 0.80 0.80 0.80 0.80 0.80 0.80 0.81 0.85 0.87 0.87 0.89 0.89 0.89 0.91 0.91 0.91 0.91 0.89 0.89 0.87 0.87 0.85 0.83 0.83 0.81 0.81 0.83 0.83 0.83 0.83 0.85 0.85 0.85 0.83 0.81 0.80 0.80 0.80 0.80 0.78 0.78 0.76
0.66 0.66 0.66 0.66 0.66 0.66 0.68 0.68 0.68 0.68 0.68 0.70 0.70 0.70 0.72 0.72 0.72 0.72 0.72 0.72 0.72 0.74 0.74 0.76 0.76 0.78 0.78 0.80 0.80 0.80 0.80 0.80 0.81 0.83 0.85 0.85 0.85 0.85 0.87 0.89 0.91 0.91 0.91 0.91 0.89 0.89 0.87 0.85 0.83 0.83 0.83 0.83 0.83 0.83 0.83 0.83 0.85 0.85 0.85 0.83 0.81 0.80 0.78 0.76 0.76 0.76 0.76 0.74 0.74
0.66 0.64 0.64 0.64 0.64 0.64 0.64 0.64 0.66 0.66 0.68 0.68 0.68 0.70 0.72 0.72 0.74 0.74 0.72 0.72 0.72 0.72 0.74 0.74 0.76 0.78 0.78 0.78 0.78 0.78 0.78 0.81 0.83 0.83 0.85 0.85 0.85 0.87 0.89 0.89 0.91 0.91 0.91 0.89 0.89 0.87 0.85 0.85 0.83 0.83 0.83 0.83 0.83 0.83 0.83 0.83 0.83 0.83 0.83 0.81 0.78 0.76 0.76 0.74 0.72 0.72 0.72 0.70 0.70
0.64 0.64 0.64 0.64 0.64 0.64 0.64 0.64 0.64 0.64 0.66 0.66 0.68 0.70 0.72 0.74 0.74 0.74 0.72 0.72 0.72 0.72 0.74 0.74 0.76 0.76 0.78 0.76 0.78 0.78 0.80 0.83 0.83 0.85 0.87 0.89 0.89 0.89 0.89 0.89 0.89 0.89 0.89 0.87 0.85 0.85 0.83 0.83 0.83 0.83 0.83 0.85 0.85 0.85 0.83 0.83 0.81 0.81 0.80 0.80 0.76 0.74 0.72 0.72 0.70 0.70 0.68 0.68 0.68
0.64 0.64 0.64 0.64 0.62 0.62 0.64 0.64 0.64 0.64 0.64 0.66 0.68 0.70 0.72 0.72 0.72 0.72 0.72 0.72 0.72 0.72 0.72 0.74 0.76 0.76 0.76 0.78 0.78 0.80 0.81 0.85 0.87 0.87 0.89 0.87 0.87 0.87 0.87 0.87 0.87 0.87 0.85 0.85 0.83 0.83 0.83 0.83 0.85 0.85 0.87 0.85 0.85 0.85 0.83 0.81 0.80 0.78 0.76 0.76 0.72 0.72 0.70 0.70 0.70 0.68 0.68 0.66 0.64
0.64 0.64 0.64 0.64 0.64 0.64 0.64 0.64 0.64 0.64 0.66 0.68 0.68 0.70 0.72 0.72 0.72 0.72 0.72 0.72 0.72 0.74 0.74 0.76 0.76 0.78 0.78 0.78 0.80 0.80 0.81 0.85 0.87 0.87 0.87 0.87 0.87 0.85 0.85 0.85 0.85 0.83 0.83 0.83 0.83 0.83 0.85 0.85 0.85 0.85 0.85 0.83 0.83 0.81 0.80 0.80 0.76 0.74 0.74 0.70 0.70 0.70 0.68 0.68 0.66 0.66 0.64 0.62 0.60
0.66 0.66 0.66 0.64 0.64 0.64 0.64 0.64 0.64 0.66 0.66 0.68 0.70 0.70 0.70 0.70 0.70 0.70 0.70 0.72 0.74 0.76 0.78 0.78 0.78 0.78 0.78 0.80 0.81 0.83 0.85 0.85 0.85 0.85 0.85 0.85 0.85 0.83 0.83 0.83 0.83 0.81 0.81 0.83 0.83 0.85 0.85 0.85 0.85 0.83 0.83 0.81 0.80 0.80 0.78 0.76 0.76 0.74 0.72 0.70 0.68 0.68 0.66 0.66 0.64 0.62 0.60 0.56 0.54
0.66 0.66 0.64 0.64 0.64 0.64 0.66 0.66 0.66 0.68 0.68 0.70 0.70 0.70 0.70 0.68 0.68 0.70 0.72 0.74 0.76 0.78 0.78 0.78 0.78 0.80 0.80 0.81 0.83 0.83 0.85 0.85 0.85 0.85 0.83 0.83 0.81 0.81 0.81 0.81 0.81 0.81 0.83 0.83 0.85 0.85 0.85 0.83 0.83 0.81 0.81 0.80 0.78 0.78 0.76 0.74 0.74 0.72 0.72 0.70 0.68 0.64 0.62 0.60 0.58 0.54 0.50 0.48 0.40
0.64 0.64 0.64 0.64 0.64 0.64 0.64 0.66 0.68 0.68 0.70 0.70 0.70 0.70 0.70 0.70 0.70 0.70 0.72 0.74 0.76 0.78 0.80 0.80 0.80 0.81 0.81 0.83 0.83 0.83 0.83 0.83 0.83 0.83 0.81 0.81 0.81 0.81 0.81 0.81 0.81 0.83 0.85 0.85 0.85 0.85 0.83 0.81 0.81 0.80 0.78 0.78 0.76 0.76 0.74 0.74 0.72 0.70 0.66 0.66 0.62 0.58 0.54 0.50 0.48 0.46 0.42 0.40 0.36
0.64 0.64 0.64 0.64 0.64 0.64 0.64 0.66 0.68 0.68 0.70 0.70 0.70 0.70 0.70 0.70 0.72 0.74 0.74 0.76 0.78 0.80 0.81 0.81 0.81 0.81 0.81 0.81 0.81 0.81 0.81 0.81 0.81 0.81 0.81 0.81 0.81 0.81 0.81 0.81 0.83 0.85 0.85 0.83 0.83 0.83 0.81 0.81 0.80 0.78 0.76 0.76 0.74 0.74 0.72 0.72 0.70 0.64 0.58 0.56 0.52 0.50 0.46 0.42 0.40 0.38 0.38 0.36 0.32
0.64 0.64 0.64 0.62 0.64 0.64 0.64 0.66 0.68 0.70 0.70 0.72 0.72 0.72 0.74 0.74 0.76 0.78 0.78 0.80 0.80 0.81 0.81 0.81 0.81 0.81 0.81 0.81 0.81 0.81 0.81 0.80 0.80 0.80 0.80 0.81 0.81 0.81 0.81 0.83 0.83 0.83 0.83 0.83 0.83 0.81 0.81 0.80 0.80 0.76 0.74 0.72 0.72 0.70 0.68 0.66 0.62 0.54 0.48 0.46 0.44 0.42 0.40 0.38 0.36 0.34 0.32 0.32 0.30
0.66 0.64 0.64 0.64 0.64 0.64 0.66 0.68 0.70 0.72 0.72 0.74 0.74 0.76 0.76 0.78 0.78 0.80 0.80 0.80 0.80 0.80 0.80 0.80 0.80 0.80 0.80 0.80 0.80 0.80 0.80 0.80 0.80 0.80 0.80 0.81 0.81 0.81 0.81 0.81 0.83 0.81 0.81 0.81 0.81 0.80 0.80 0.78 0.76 0.74 0.72 0.68 0.66 0.62 0.58 0.56 0.46 0.42 0.40 0.38 0.36 0.34 0.34 0.32 0.32 0.32 0.30 0.28 0.28
0.66 0.66 0.66 0.66 0.66 0.66 0.68 0.72 0.74 0.74 0.74 0.76 0.76 0.78 0.78 0.78 0.78 0.80 0.80 0.80 0.80 0.78 0.78 0.78 0.78 0.78 0.78 0.78 0.78 0.80 0.80 0.80 0.80 0.80 0.80 0.81 0.81 0.80 0.80 0.80 0.80 0.80 0.80 0.80 0.78 0.78 0.76 0.72 0.70 0.66 0.64 0.60 0.56 0.52 0.48 0.42 0.38 0.34 0.34 0.32 0.32 0.32 0.30 0.30 0.30 0.30 0.28 0.26 0.26
0.68 0.68 0.68 0.68 0.68 0.68 0.70 0.74 0.76 0.76 0.76 0.76 0.78 0.78 0.78 0.78 0.78 0.78 0.78 0.78 0.78 0.78 0.78 0.78 0.78 0.78 0.78 0.78 0.78 0.80 0.80 0.80 0.80 0.80 0.80 0.80 0.80 0.80 0.78 0.78 0.76 0.76 0.76 0.76 0.74 0.72 0.68 0.64 0.60 0.56 0.52 0.50 0.46 0.44 0.40 0.32 0.32 0.30 0.30 0.30 0.30 0.28 0.28 0.28 0.28 0.28 0.26 0.26 0.26
0.70 0.70 0.70 0.70 0.70 0.72 0.74 0.76 0.76 0.76 0.76 0.78 0.78 0.78 0.78 0.78 0.76 0.78 0.78 0.78 0.78 0.78 0.78 0.78 0.78 0.78 0.78 0.78 0.78 0.78 0.80 0.80 0.80 0.80 0.78 0.78 0.78 0.78 0.76 0.74 0.72 0.72 0.70 0.68 0.66 0.62 0.56 0.52 0.50 0.46 0.42 0.40 0.38 0.36 0.34 0.30 0.30 0.28 0.28 0.28 0.28 0.28 0.28 0.26 0.26 0.26 0.26 0.24 0.24
0.74 0.74 0.74 0.74 0.74 0.76 0.76 0.76 0.76 0.78 0.78 0.78 0.78 0.78 0.78 0.78 0.78 0.78 0.78 0.78 0.78 0.78 0.78 0.78 0.78 0.78 0.78 0.78 0.78 0.78 0.78 0.78 0.78 0.78 0.78 0.76 0.76 0.74 0.72 0.68 0.66 0.62 0.60 0.56 0.54 0.50 0.46 0.44 0.40 0.38 0.36 0.34 0.34 0.32 0.30 0.28 0.28 0.28 0.26 0.26 0.26 0.26 0.26 0.26 0.26 0.24 0.24 0.24 0.24
0.76 0.76 0.76 0.76 0.76 0.76 0.76 0.76 0.76 0.76 0.78 0.78 0.78 0.78 0.78 0.78 0.78 0.78 0.78 0.78 0.78 0.78 0.78 0.78 0.78 0.78 0.78 0.78 0.76 0.76 0.76 0.76 0.76 0.76 0.76 0.74 0.70 0.64 0.60 0.56 0.54 0.50 0.46 0.46 0.44 0.42 0.42 0.40 0.38 0.36 0.34 0.32 0.32 0.30 0.28 0.26 0.26 0.26 0.24 0.24 0.26 0.26 0.24 0.24 0.24 0.24 0.22 0.22 0.22
Wind_Speed
34 34 35 35 36 37 37 38 39 39 40 40 40 41 41 41 41 41 41 40 40 40 40 39 39 39 39 38 38 37 37 36 35 35 36 36 37 37 38 38 38 38 38 37 37 36 36 35 35 35 34 34 33 33 33 33 32 32 32 31 31 30 29 28 28 28 28 28 29
35 35 35 35 36 36 37 38 38 39 39 40 40 41 41 41 41 41 41 41 41 41 40 40 40 39 39 39 38 38 37 37 36 36 36 36 37 37 38 38 39 39 39 38 37 36 36 36 36 36 35 35 34 34 33 33 32 32 31 31 31 30 29 29 28 28 28 28 28
35 36 36 36 36 37 37 38 38 39 40 40 40 40 41 41 41 41 41 41 41 41 41 40 40 40 39 39 39 38 38 37 37 37 37 37 37 37 38 38 39 39 39 38 38 37 37 37 37 37 36 36 35 35 34 33 32 32 31 31 31 30 29 29 28 28 28 28 28
36 36 37 37 37 38 38 38 39 39 40 40 40 41 41 41 41 41 41 41 41 41 41 41 40 40 40 39 39 38 38 37 37 37 37 37 37 37 37 38 38 39 39 38 38 37 37 37 37 37 36 36 36 35 34 33 32 32 32 31 31 30 29 29 28 28 28 28 29
37 37 37 37 38 38 39 39 40 40 40 40 40 41 41 41 41 41 41 41 42 41 41 41 40 40 40 39 39 38 38 38 37 37 37 36 37 37 37 38 38 38 38 38 38 37 37 36 36 36 36 36 36 35 34 33 32 32 32 31 31 30 30 29 29 29 29 29 29
37 37 37 37 38 38 39 39 40 41 41 41 41 41 41 41 41 41 42 42 42 42 41 41 41 40 40 39 39 38 38 38 37 37 37 36 36 37 37 37 37 37 37 37 37 37 37 36 35 35 36 36 35 35 34 33 32 32 32 31 30 30 30 29 29 29 29 29 29
37 37 37 38 38 38 38 39 40 40 41 41 41 42 42 42 42 42 42 42 42 42 41 41 41 40 40 39 39 39 38 38 37 37 36 36 36 36 36 36 36 36 37 37 37 37 36 36 35 35 35 35 34 33 33 32 32 31 31 31 30 30 30 30 29 29 29 29 30
36 37 37 38 38 38 38 39 39 39 39 40 41 41 42 42 42 42 42 42 42 42 41 41 41 41 40 40 39 39 38 38 37 37 36 36 36 36 36 36 36 36 36 36 36 36 36 35 35 35 34 34 33 32 32 31 31 30 30 30 30 30 30 29 29 29 29 30 30
36 36 37 38 38 39 39 39 38 38 38 39 40 41 41 41 41 41 41 41 41 41 41 41 41 41 40 40 39 39 38 38 37 37 36 36 35 35 34 34 34 35 36 36 36 36 35 35 35 35 34 33 32 32 31 30 30 29 29 29 29 29 29 29 28 29 29 30 31
35 36 36 37 38 39 39 39 38 38 38 39 39 39 40 40 41 41 41 41 41 41 41 41 41 40 40 39 39 39 38 38 37 37 36 35 35 34 33 33 34 34 35 35 35 35 35 35 35 34 33 32 31 30 30 29 28 28 29 29 28 28 28 28 29 29 30 31 31
34 35 36 37 38 38 38 38 38 38 38 38 38 39 39 40 40 40 40 40 40 40 40 40 40 40 40 39 39 39 38 38 37 36 35 34 34 33 33 33 34 34 34 34 34 34 34 34 34 33 31 31 30 29 28 28 27 27 28 28 27 27 28 28 29 30 30 31 31
33 34 35 36 36 37 38 38 38 38 38 38 38 38 38 39 39 39 39 39 39 39 39 39 39 39 39 39 39 39 38 37 36 35 35 34 33 33 33 33 33 33 33 33 33 33 33 34 33 32 30 29 29 28 27 26 27 27 27 27 27 27 28 29 29 30 30 31 31
32 33 34 34 35 36 36 37 37 37 37 37 37 37 38 38 39 39 39 39 39 39 39 39 39 39 39 38 38 38 37 36 36 35 34 33 33 33 33 33 32 32 32 32 32 32 33 33 32 31 29 29 28 27 26 26 27 27 27 27 27 28 28 29 29 30 30 31 31
31 32 33 33 34 34 35 35 35 36 36 36 36 37 37 38 38 38 39 39 38 38 38 38 38 38 38 38 37 37 36 35 35 34 33 33 33 33 32 32 31 31 31 31 32 31 31 32 31 30 29 29 28 27 27 27 27 27 27 27 27 28 28 28 29 30 30 31 31
31 32 32 33 33 33 33 34 34 34 34 35 35 35 36 37 38 38 38 38 38 38 37 37 37 37 37 37 36 36 35 34 34 33 33 33 33 32 31 30 30 30 30 30 30 30 29 29 29 29 29 29 28 28 27 27 27 27 27 27 27 28 28 28 29 29 30 31 31
32 32 33 33 32 32 32 32 33 33 33 33 34 34 35 36 37 37 37 37 37 37 37 37 37 37 36 36 35 35 34 33 33 32 32 32 32 31 30 29 29 29 29 28 28 27 27 28 28 29 29 28 28 27 27 27 27 27 27 27 27 27 28 28 28 29 30 30 30
33 33 32 32 32 32 32 32 32 32 32 32 32 33 34 35 35 36 36 37 37 37 37 36 36 36 36 35 35 34 33 33 32 32 31 31 30 29 29 28 28 28 28 27 27 27 27 27 28 28 28 27 27 27 27 27 27 27 27 27 27 27 27 28 28 28 29 29 30
33 32 32 32 32 31 31 31 31 31 31 31 31 32 33 34 34 35 35 36 36 36 36 36 35 35 35 34 34 33 33 32 31 31 31 30 30 29 28 28 28 28 27 27 27 28 28 28 27 27 26 26 26 26 27 27 26 26 26 26 27 27 27 27 28 28 28 28 29
32 32 32 31 31 31 31 30 30 30 30 30 31 31 32 33 33 34 34 35 35 35 35 35 34 34 33 33 33 32 32 31 31 30 30 29 29 28 27 27 27 27 27 27 28 28 28 27 26 26 25 25 26 26 26 26 26 26 26 26 26 26 27 27 27 27 27 27 28
30 30 30 30 29 29 29 29 29 29 29 29 30 30 31 31 32 32 33 34 34 34 33 33 33 32 32 32 31 31 31 30 30 29 29 28 28 27 27 27 27 27 27 27 27 27 27 26 26 25 25 25 26 26 26 25 25 25 25 25 26 27 27 27 27 26 26 26 27
27 27 27 27 27 27 27 27 27 28 28 28 28 29 29 30 30 31 32 32 32 32 32 32 31 31 31 30 30 29 29 29 29 28 28 27 27 27 26 26 26 26 26 27 27 27 26 26 25 25 25 25 25 25 25 24 24 24 24 25 26 27 27 27 26 26 26 26 27
24 25 25 25 25 25 25 25 26 26 26 26 27 27 27 28 29 29 30 30 31 31 30 30 30 30 29 29 29 28 28 28 28 27 27 26 26 26 26 26 26 26 26 27 27 26 26 25 25 25 25 25 25 24 24 24 24 24 24 25 26 27 27 26 26 26 27 27 27
23 23 23 23 23 23 23 24 24 24 24 24 25 25 25 26 27 27 28 28 29 29 29 29 28 28 28 28 27 27 27 27 26 26 25 25 25 25 25 25 24 25 25 25 25 25 24 24 24 24 24 24 24 23 23 23 23 24 24 24 25 25 25 25 25 26 26 26 26
22 22 22 22 22 21 21 22 22 22 22 22 22 23 23 24 24 25 26 26 27 27 27 27 27 27 26 26 26 26 25 25 25 24 24 23 24 24 24 23 23 23 23 23 23 23 23 23 24 23 23 23 23 23 23 23 23 23 23 24 24 24 23 23 24 24 25 25 26
20 20 19 19 19 19 19 19 19 19 19 20 20 21 21 22 22 23 24 24 25 25 25 25 25 25 25 24 24 24 24 23 23 22 22 22 22 23 23 23 22 22 22 22 22 22 22 22 22 22 22 22 22 22 22 22 22 22 23 24 24 24 24 24 25 25 26 26 27
17 17 17 16 16 16 16 16 16 17 17 18 18 19 19 20 20 21 22 22 23 23 24 23 23 23 23 23 22 22 22 21 21 20 21 21 21 22 22 22 22 21 21 21 21 21 21 21 21 21 21 21 21 21 21 21 21 21 23 24 25 26 26 26 26 27 27 27 27
15 14 14 14 14 14 14 14 14 15 15 16 16 17 17 18 18 19 19 20 21 21 22 22 21 21 21 21 20 20 19 19 19 19 20 20 21 21 21 21 21 20 20 20 20 20 20 20 20 20 20 20 20 20 19 20 20 21 23 24 26 26 27 27 27 26 26 26 27
12 12 12 12 12 12 12 13 13 13 14 14 15 15 15 16 16 16 17 18 19 19 20 20 20 20 19 19 18 17 17 18 18 19 20 20 20 20 20 19 19 19 19 19 19 19 19 19 19 18 18 18 18 18 18 19 20 22 23 24 25 26 26 26 26 25 26 26 27
10 10 10 10 10 11 11 12 12 12 13 13 14 14 14 14 15 15 15 16 17 17 17 18 17 17 17 16 16 16 17 17 18 19 19 19 19 18 17 17 18 18 18 18 18 17 17 17 17 16 16 17 17 18 18 19 21 22 23 24 24 24 24 24 24 25 25 27 28
8 9 9 9 10 10 11 11 12 12 13 13 14 14 14 14 14 14 14 14 15 15 15 15 15 15 15 15 16 17 17 17 18 18 18 17 16 16 16 16 17 17 17 16 16 15 15 15 15 16 16 17 18 18 19 20 21 22 22 22 22 22 22 23 24 25 26 27 28
7 7 8 8 9 10 10 11 12 12 13 13 14 14 15 15 14 14 14 14 14 14 14 14 14 15 15 16 16 16 16 16 16 16 15 15 15 15 15 15 15 15 15 14 14 14 14 14 15 16 16 16 17 18 18 19 20 21 21 21 21 22 22 23 25 26 27 28 29
6 7 7 8 8 9 10 10 11 12 12 13 14 14 15 15 15 15 15 14 14 15 15 15 15 15 15 15 15 15 15 15 14 14 14 14 14 14 14 14 13 13 13 13 13 13 13 14 14 14 15 15 16 17 18 18 19 19 20 20 21 22 23 25 26 27 27 28 29
6 7 7 8 8 8 9 9 10 10 11 12 13 14 14 15 15 15 14 14 14 14 14 15 14 14 14 14 14 14 14 13 13 13 13 13 13 13 12 12 12 12 12 12 12 12 12 12 13 13 14 15 16 16 17 18 18 19 20 21 22 23 24 25 26 27 28 29 30
6 7 8 8 8 8 9 9 9 10 11 12 13 13 14 14 13 13 12 12 12 12 12 13 13 13 13 13 13 13 12 12 12 12 12 12 12 11 11 11 11 11 11 11 11 11 11 11 12 13 14 15 16 16 17 18 19 20 21 22 23 24 25 26 27 28 28 29 30
6 7 8 8 9 9 9 9 9 10 11 11 12 12 12 12 11 10 10 10 10 10 11 11 11 12 12 12 12 12 11 11 11 11 11 11 10 10 10 10 10 10 10 10 10 10 11 11 12 13 14 15 16 17 18 18 19 20 21 22 23 24 25 26 27 28 29 30 30
5 6 7 7 8 8 8 8 9 9 10 10 10 10 10 9 9 8 9 9 9 10 10 10 11 11 11 11 10 10 11 11 10 10 10 9 9 9 9 9 9 9 9 9 9 10 11 11 12 13 14 15 16 17 18 19 20 21 22 23 24 25 26 27 27 28 29 30 31
5 5 6 6 7 7 7 7 7 8 8 8 8 8 7 7 7 8 9 9 10 10 10 11 11 10 10 10 10 10 10 10 10 9 9 8 8 8 8 8 8 8 9 9 9 10 10 11 12 13 14 15 16 17 18 19 20 21 22 23 24 25 26 27 28 29 29 30 31
5 5 5 5 5 6 6 6 6 7 7 8 8 8 7 7 8 8 9 10 10 11 11 11 11 11 11 10 10 10 9 9 8 8 7 7 7 7 7 7 8 8 8 9 9 10 10 11 12 13 15 16 17 18 19 20 21 22 23 24 25 26 27 27 28 29 29 30 31
6 6 6 5 5 5 5 6 6 7 8 9 9 9 9 8 9 10 10 11 11 11 11 11 10 10 10 10 9 9 8 8 7 7 6 6 6 6 6 7 8 8 9 9 10 10 11 12 13 14 15 16 18 19 19 20 21 22 23 24 25 26 27 27 28 29 30 30 31
9 8 8 8 7 8 8 8 8 9 10 10 11 11 10 10 10 11 12 11 10 9 9 9 8 8 8 8 8 8 7 7 6 6 6 6 6 6 7 7 8 9 10 10 11 11 12 13 14 15 16 17 18 19 20 21 21 22 23 24 25 26 27 27 28 29 30 30 31
13 12 12 11 11 11 11 11 11 11 12 12 13 13 12 11 11 12 12 11 9 8 7 6 6 6 6 6 6 6 6 5 5 5 5 6 6 6 7 8 9 10 10 11 12 12 13 14 15 16 17 18 18 19 20 21 22 22 23 24 25 26 27 28 28 29 30 30 31
Wind_Direction
260 259 258 258 257 256 256 255 255 255 255 255 255 254 254 253 253 253 253 252 252 252 252 253 253 253 253 252 252 252 253 253 253 253 252 252 252 252 252 252 252 252 252 253 255 257 259 260 260 260 260 259 258 257 256 255 255 257 259 260 262 264 266 267 267 267 267 268 269
260 259 259 258 257 257 256 255 255 255 255 255 255 255 254 254 254 254 253 253 253 252 252 252 252 252 252 252 253 253 253 253 253 253 253 253 253 253 253 253 252 252 253 253 255 257 259 260 260 260 259 259 258 257 255 255 255 257 258 259 261 263 265 266 267 267 267 268 269
259 259 259 259 258 257 256 255 255 255 254 255 255 255 254 254 254 254 254 253 253 253 252 252 252 251 251 252 252 253 253 253 253 254 254 254 254 254 254 253 253 253 253 253 255 256 258 260 260 260 259 258 257 256 255 255 255 257 258 259 261 263 265 266 266 267 267 268 269
260 259 259 259 258 257 257 256 255 255 254 254 254 254 254 254 254 254 254 254 253 252 252 252 251 251 251 251 251 252 252 252 253 254 254 255 255 255 254 254 253 253 253 254 255 256 257 259 259 258 257 257 257 256 255 255 255 256 258 260 261 263 264 265 266 266 267 268 269
261 260 259 259 258 258 257 257 256 255 255 254 254 253 253 253 253 253 253 253 253 252 252 251 251 251 251 251 251 251 251 252 252 253 254 255 255 255 255 254 254 254 254 254 255 256 256 257 257 257 256 256 256 256 255 254 255 256 258 260 262 263 264 264 265 266 267 268 269
261 261 260 260 259 259 258 258 257 256 255 254 253 253 253 253 253 252 252 252 252 252 251 251 251 250 250 250 250 250 250 251 252 253 254 255 255 256 255 254 254 254 255 255 255 255 255 255 256 256 256 256 256 255 255 254 254 256 258 260 261 262 263 264 265 266 267 268 269
262 262 261 260 260 259 259 259 258 257 256 255 253 253 252 252 252 252 252 252 252 251 251 250 250 250 250 250 249 250 250 251 252 253 254 255 255 255 255 255 255 255 255 255 255 254 254 254 255 256 256 255 254 253 253 253 254 255 257 258 260 262 263 264 265 266 267 268 270
263 262 261 261 260 260 259 259 258 257 256 255 254 253 252 252 252 251 251 251 251 250 250 250 250 249 249 249 249 249 250 250 252 253 254 254 255 255 255 255 255 255 254 254 253 253 253 254 255 255 255 254 252 251 251 252 253 254 256 258 260 262 263 265 266 267 268 268 270
262 262 261 261 260 259 259 258 258 257 256 256 255 254 253 252 252 251 251 251 250 250 249 249 249 249 249 249 249 249 250 250 251 252 253 254 254 254 254 255 255 255 254 253 252 251 251 252 253 253 253 252 250 250 250 250 251 253 255 258 260 262 264 266 267 268 268 268 269
262 261 261 260 260 259 259 258 257 257 256 256 256 255 254 253 252 251 251 251 250 249 249 249 248 248 248 249 249 250 250 251 251 252 252 253 253 253 253 254 255 255 255 253 252 251 250 251 251 251 250 250 249 248 248 248 250 253 256 258 261 263 265 266 267 268 268 268 269
263 262 261 261 260 260 259 258 257 257 256 256 256 256 254 253 252 251 250 250 250 249 248 248 248 247 248 248 249 250 250 251 251 251 251 252 252 252 253 254 254 254 254 253 252 251 250 249 249 248 248 248 247 246 246 248 251 254 257 259 261 263 264 266 267 267 268 268 269
264 263 262 261 261 260 259 258 258 257 256 256 256 255 254 253 251 250 249 249 248 248 248 248 248 248 248 249 249 250 250 250 251 251 251 251 252 252 253 253 253 253 253 252 252 251 250 249 248 247 246 246 245 246 248 251 254 256 258 259 261 262 264 265 266 267 268 268 268
266 264 263 262 261 261 260 259 258 257 256 256 255 254 254 252 251 249 248 248 248 248 248 248 248 247 247 248 249 249 250 250 251 251 251 252 252 252 252 252 253 253 252 252 251 250 249 248 247 245 244 244 245 248 251 254 255 257 258 259 261 262 263 265 266 267 268 268 268
267 266 265 264 263 262 261 260 259 258 257 256 255 254 253 251 250 249 248 247 247 247 248 247 247 247 247 247 248 249 249 250 250 251 251 252 252 252 252 252 253 253 252 251 250 248 246 245 244 243 242 243 247 250 253 255 256 257 258 259 261 262 264 265 267 268 268 269 268
269 268 267 265 264 263 262 261 259 258 257 256 254 253 252 251 249 248 247 247 247 247 247 247 247 247 247 247 247 248 249 249 249 250 251 251 251 252 252 252 253 253 252 250 248 246 243 241 240 240 241 243 247 251 253 255 256 258 259 260 261 263 264 266 267 268 268 268 267
269 268 267 266 265 263 262 261 260 258 257 256 254 253 251 250 249 247 247 246 246 246 246 246 246 246 246 246 247 247 248 248 248 249 250 251 251 251 252 252 252 252 251 248 244 241 238 237 238 239 242 245 248 251 253 255 256 257 258 260 261 263 264 265 266 267 268 268 267
268 267 266 265 264 263 262 261 260 258 257 256 254 252 250 249 248 247 246 245 245 245 245 245 245 245 245 245 246 247 247 247 247 248 249 250 251 251 251 251 251 250 248 244 240 237 236 237 239 242 245 247 250 252 253 255 256 257 259 260 262 263 263 264 265 266 268 269 269
266 266 265 264 263 262 261 260 259 257 256 255 253 252 250 249 247 246 245 245 244 244 244 244 244 244 244 244 245 246 247 246 246 247 248 250 250 250 249 249 249 248 246 242 239 238 239 241 243 245 247 249 251 252 254 255 257 258 259 261 262 263 264 264 265 266 268 270 271
266 265 265 263 262 261 260 259 257 256 254 253 252 251 249 248 246 245 245 244 243 242 242 243 243 243 243 244 244 246 246 246 245 245 247 249 249 249 249 248 247 246 245 243 241 241 242 243 245 246 248 249 251 252 254 255 257 258 260 261 262 263 264 264 265 265 267 270 271
266 265 264 263 261 260 258 257 256 255 253 252 250 249 248 246 245 244 243 243 242 241 241 241 242 242 242 243 243 244 245 245 244 244 245 246 248 248 248 247 246 245 245 244 243 243 243 243 244 246 247 249 251 252 254 255 257 259 260 262 263 264 264 264 264 264 266 268 271
266 265 264 262 261 259 258 256 255 253 252 250 249 247 246 245 244 243 242 241 240 240 239 240 240 241 241 242 242 243 244 244 244 244 243 244 245 246 246 246 245 244 244 244 243 242 242 242 243 245 248 249 251 253 254 256 258 259 261 262 263 264 264 264 263 264 265 268 270
267 266 265 263 261 259 257 255 254 252 250 249 247 246 245 244 243 242 241 240 239 238 238 239 239 239 240 240 241 242 243 244 244 243 243 243 244 245 245 244 243 243 242 242 241 241 241 242 243 246 248 250 252 253 255 256 258 259 261 262 263 264 265 265 264 265 266 268 270
269 268 266 264 261 259 256 254 252 250 248 247 246 245 244 243 242 241 239 238 237 237 237 237 238 238 239 239 240 241 242 243 243 243 243 242 243 244 244 243 241 240 240 240 240 239 240 242 244 246 249 251 252 254 255 256 258 259 260 262 264 265 266 266 266 267 269 271 273
270 268 266 264 261 257 254 251 249 247 245 244 243 242 241 240 240 239 237 236 236 236 236 237 237 238 238 239 239 240 241 241 241 241 241 242 243 242 241 240 240 239 240 240 240 240 241 243 245 247 249 251 253 254 255 257 258 259 261 263 266 267 268 268 269 270 273 275 276
269 266 264 261 258 254 251 247 245 242 241 240 239 238 237 237 237 236 236 235 235 235 235 236 236 237 237 238 239 239 240 240 239 239 240 241 242 241 240 239 237 237 238 239 240 240 242 244 246 248 249 251 253 254 256 257 258 259 261 264 267 268 269 270 272 273 275 277 278
265 262 259 256 253 249 246 242 239 237 236 234 234 233 233 233 233 233 234 234 234 234 234 234 235 235 236 237 238 238 238 238 238 239 240 241 241 240 239 236 233 233 234 237 239 240 242 243 245 247 249 251 253 255 257 258 258 259 260 263 266 268 271 273 275 276 277 278 279
261 258 254 251 248 243 239 235 232 231 230 229 229 229 229 229 230 230 230 230 231 231 232 232 232 233 234 235 235 235 236 237 237 238 239 239 239 237 235 233 231 231 233 236 238 240 241 242 244 247 249 252 254 257 259 260 259 259 260 262 265 268 271 273 275 276 277 278 279
257 253 249 244 239 235 230 227 224 223 223 223 223 223 223 223 224 225 226 226 227 227 228 229 230 231 232 232 232 233 233 234 235 235 235 235 234 233 231 230 231 233 235 236 238 239 241 242 245 247 250 253 256 258 260 261 261 262 263 265 267 269 271 273 274 275 277 278 279
252 246 241 235 229 224 221 218 216 215 215 216 216 216 216 216 217 218 219 221 222 223 224 225 226 227 228 228 229 230 230 230 230 230 231 231 230 229 229 230 232 234 235 236 237 239 241 243 245 247 250 252 255 256 258 260 262 264 267 268 270 271 272 273 275 276 277 278 280
243 236 230 224 219 215 212 211 210 210 210 210 209 209 208 208 208 209 211 213 215 217 219 220 221 221 222 224 225 226 226 226 227 228 228 227 226 226 228 230 233 234 235 235 237 239 241 243 245 247 248 250 251 253 256 259 263 267 269 271 272 273 273 274 275 276 277 279 282
228 223 217 213 210 208 207 206 207 207 207 207 206 204 202 200 200 202 204 207 210 212 214 215 215 217 218 220 221 221 222 225 226 226 223 222 222 224 227 229 231 233 233 234 236 238 241 243 245 246 248 250 253 256 261 264 268 271 272 273 274 274 275 276 276 277 279 282 286
207 204 202 200 199 200 201 202 204 206 207 207 205 202 198 196 196 198 201 204 207 209 210 211 212 213 215 216 218 220 222 223 221 218 216 217 219 222 225 227 229 231 231 232 235 238 240 242 245 247 251 255 260 265 268 271 273 274 275 275 275 275 276 277 279 281 284 286 289
184 185 184 185 186 188 191 194 198 201 203 203 201 197 194 193 194 196 199 203 205 207 208 209 210 212 214 216 217 218 216 213 210 210 212 215 218 220 222 225 227 228 230 231 234 237 240 244 249 255 260 265 268 271 273 274 274 274 275 275 276 277 279 281 283 286 288 289 290
170 171 172 173 174 176 179 182 185 188 190 190 189 189 189 190 192 195 198 202 204 206 207 209 211 212 213 212 210 207 204 202 204 207 210 213 215 216 219 223 227 229 230 232 236 241 246 253 259 263 267 269 271 273 273 274 274 274 275 277 279 281 284 286 288 289 290 290 290
171 167 166 166 166 167 168 170 173 176 178 179 181 183 186 189 192 195 199 201 203 203 204 205 205 204 202 200 197 195 194 197 200 204 206 209 211 214 218 223 228 231 233 239 244 250 255 260 263 266 268 270 272 273 274 275 276 277 279 282 284 287 289 290 291 291 291 291 291
187 178 171 166 164 164 166 169 172 175 176 178 180 182 185 188 190 192 193 192 190 189 188 187 187 186 185 185 186 188 190 192 194 197 200 204 208 214 220 226 232 237 241 246 251 255 259 262 266 269 271 273 275 276 277 279 281 283 285 287 289 290 291 291 291 292 292 292 292
186 184 180 176 174 175 177 181 182 180 178 176 174 172 171 172 174 176 176 174 172 171 171 171 172 172 173 175 178 181 184 186 189 192 197 203 210 217 225 233 240 243 246 249 254 259 263 267 270 273 276 278 280 281 283 284 286 288 289 290 291 291 291 292 292 293 294 294 294
161 164 167 170 175 180 184 184 180 173 165 158 154 151 152 156 160 161 161 160 159 159 160 162 163 165 167 170 173 176 180 184 188 192 198 206 215 224 232 240 246 251 253 257 262 266 270 274 277 279 282 284 285 286 287 288 289 290 290 291 292 292 293 294 294 295 295 296 296
127 132 135 139 145 150 152 151 149 147 146 144 142 140 139 143 148 150 150 149 149 151 153 156 159 163 167 170 173 176 179 183 188 195 204 214 224 231 238 246 255 260 264 266 270 273 276 279 282 284 286 288 289 289 289 290 291 291 292 293 294 295 295 296 296 297 297 298 299
102 106 109 111 114 115 116 118 121 126 130 131 131 129 127 130 136 140 141 140 141 144 148 151 156 161 167 170 172 174 177 183 192 203 214 224 232 239 247 255 263 269 272 274 276 278 281 283 285 287 289 290 291 291 292 292 293 294 295 296 296 297 297 298 298 299 300 300 301
90 92 94 97 100 103 106 108 112 116 119 121 122 122 123 126 130 133 135 136 138 140 141 141 143 148 154 160 165 169 176 186 202 217 229 237 245 252 259 265 271 276 280 281 283 284 285 286 288 289 291 292 294 295 295 296 297 297 297 298 299 299 300 300 301 302 302 303 303